Tracking 27401 objects as of 3-Jun-2023
HD Live streaming from Space Station
objects crossing your sky now

STARLINK-1300

Track STARLINK-1300 now!
10-day predictions
STARLINK-1300 is classified as:


NORAD ID: 45374
Int'l Code: 2020-019Q
Perigee: 553.3 km
Apogee: 555.5 km
Inclination: 53.1 °
Period: 95.6 minutes
Semi major axis: 6925 km
RCS: Unknown
Launch date: March 18, 2020
Source: United States (US)
Launch site: AIR FORCE EASTERN TEST RANGE (AFETR)
Your satellite tracking list
Your tracking list is empty




NASA's NSSDC Master Catalog

Two Line Element Set (TLE):
1 45374U 20019Q   23153.63522163 -.00002737  00000-0 -16494-3 0  9995
2 45374  53.0548  25.4172 0001581  93.6642 266.4528 15.06397537177347
Source of the keplerian elements: AFSPC